Погода в Бад-Киссингене

Германия     50°11′11″N   10°04′38″E
темп.,
°C
ветер,
м/с
пор.,
м/с
влажн.,
%
обл.,
%
осадки,
мм/ч
давл.,
гПа
погр.,
м
11 апреля, вс
вс1123:00+7в1196100 0.0 101331
02:00+6в1198100 0.0 101219
05:00+7зюз0093100 0.1 101112
08:00+8ююв129459 0.4 101164
11:00+12юз2575100 0.0 1010739
14:00+13юз2577100 0.6 1010754
17:00+14юз377192 0.6 1009907
20:00+9зсз3993100 3.1 1011603
12 апреля, пн
пн1223:00+5сз2494100 0.9 1015244
02:00+3ссз3593100 0.9 1017377
05:00+2ссз2797100 0.8 1019460
08:00+2с2789100 1.5 1022733
11:00+3с3583100 0.8 1024879
14:00+4с4565100 0.9 10251430
17:00+5с3553100 0.1 10251582
20:00+3сз1165100 0.1 102714
13 апреля, вт
вт1323:00+1ссз2275100 0.0 102917
02:000сз2279100 0.0 102923
05:000ссз2181100 0.0 102923
08:00+2ссз1273100 0.0 1030184
11:00+5с344596 0.1 10301566
14:00+7с3534100 0.1 10292712
17:00+7с354391 0.2 10291998
20:00+2ссз227198 0.4 103037
14 апреля, ср
ср1423:000ссз228146 0.0 103137
02:00−1ссз22854 0.0 103223
05:00−2ссз228718 0.0 103226
08:000ссз137432 0.0 1032205
11:00+5ссв354598 0.0 10311790
14:00+6ссв4547100 0.3 10301681
17:00+7с4543100 0.3 10281884
20:00+2с2466100 0.3 102993
15 апреля, чт
чт1523:000ссз228033 0.0 103028
02:00−1с2285100 0.0 103043
05:00−1с2388100 0.0 103069
08:00+1с3871100 0.0 1030621
11:00+4св5946100 0.0 10301438
14:00+3ссв4974100 0.5 10311345
17:00+3ссв3878100 1.3 10301176
20:00+1с2798100 1.4 1030572